Showing default

GSAT 17, 42815

Orbit data source: Space-Track

GSAT 17, 42815 is a payload satellite owned by ISRO (IN) in GEO that was launched on Wed, 28 Jun 2017 UTC via an ARIANE 5ECA launch vehicle from the French Guiana (FRGUI). Payload-class satellites include a variety of spacecraft equipped with specific instruments for various scientific and technological missions. These include communications satellites like Starlink; space stations such as the ISS; scientific satellites like the Hubble; Earth observation satellites from companies like Planet Labs, Umbra, and HawkEye 360; GPS; miniature CubeSats for education and research; and military/defense satellites.

Not visible in the next 10 days
Identifier
42815, 2017-040B
Orbit
GEO
Last TLE update
13 hours ago
Origin
Manufacturer
ISRO SAC/Banga
Mission
Operational Civil Communications
Bus & Motor
I3K, ISRO LAM
Mass
3,477 kg wet, ~1,400 kg dry
Launch date (UTC)
2017-06-28 (8 years ago)
Launch vehicle
ARIANE 5ECA
Launch site
French Guiana (FRGUI)
Object type
Payload
Rocket body
Debris
Shape & HBR
Box + 2 Pan, 20 m
Radar Cross Section
15.081 m², Large (>1 m²)

Expand to show TLE details & history

TLE from 13 hours ago
0 GSAT 17
1 42815U 17040B   25181.88078413 -.00000257  00000-0  00000-0 0  9993
2 42815   0.0322 104.5548 0001561 183.6932  41.5097  1.00271397 29266
Epoch: 2025-06-30T21:08Z
TLE epoch observation values (Epoch: 2025-06-30T21:08:19.748Z)
Latitude
-0.03294°
Longitude
93.51717°
Altitude
35,781.257 km
Speed
3.075 km/s
True Right ascension
21h 59m 08s
True Declination
0° 01' 58"
Sunlit
Object was in daylight at epoch
Visualization orbit readout
Latitude
0.03518°
Longitude
-63.88897°
Altitude
35,789.118 km
Speed
3.075 km/s
Apparent Right ascension
11h 21m 51s
Apparent Declination
-4° 56' 10"
Sunlit
Object is in daylight
Visualization observer readout
Local Sidereal Time
22:15:05
Azimuth
332.355° NNW
Elevation
-51.92°
Doppler factor
1
Orbital elements
Apogee altitude
35,794.356 km
Perigee altitude
35,781.192 km
Semi-major axis
42,165.911 km
Eccentricity
0.00016
Inclination
0.0322°
RAAN
104.5548°
Arg. of periapsis
183.6932°
True anomaly
Unknown
Mean anomaly
41.5097°
Eccentric anomaly
Unknown
Mean motion
0.25067 °/min
Orbital period
1,436.16 mins
BSTAR
0
Loading historical data...
42815 neighbors
Loading maneuver chart data...
Loading SW <> Apogee altitude chart data...
Loading historical data...
Loading historical data...
Loading historical data...
Loading historical data...
Loading historical data...
Loading historical data...
Loading historical data...
Other satellites on launch #40 in the year 2017 (2017-06-28 UTC)

GSAT 17 Visibility

Observer location: undefined°, undefined°

GSAT 17 is likely not visible in the next few days
Span
Click to sort rows by Start time (UTC) header in descending order
Start Az.
Max El. time (UTC)
Max El. Az.
Max El.
End time (UTC)
End Az.
|